Date,TemperatureHighF,TemperatureAvgF,TemperatureLowF,DewpointHighF,DewpointAvgF,DewpointLowF,HumidityHigh,HumidityAvg,HumidityLow,PressureMaxIn,PressureMinIn,WindSpeedMaxMPH,WindSpeedAvgMPH,GustSpeedMaxMPH,PrecipitationSumIn
2013-2-1,42,36,26,28,15,1,79,44,21,30.29,29.82,11,2,23,0.02
2013-2-2,44,33,20,37,14,7,84,49,25,30.31,29.97,5,1,16,0.01
2013-2-3,50,42,33,36,30,24,90,66,39,29.96,29.78,5,0,17,0.02
2013-2-4,49,37,26,27,24,19,88,62,33,30.06,29.91,3,0,9,0.00
2013-2-5,63,46,33,38,33,26,86,64,35,29.94,29.79,4,0,13,0.00
2013-2-6,64,47,32,38,29,20,94,58,19,30.19,29.89,5,0,14,0.00
2013-2-7,49,43,38,44,38,33,96,82,64,30.22,29.87,6,1,16,0.32
2013-2-8,55,46,41,45,40,28,96,81,54,29.97,29.69,7,2,20,0.87
2013-2-9,54,41,30,29,24,16,84,55,23,30.27,29.97,4,0,13,0.01
2013-2-10,53,40,27,40,24,19,85,56,26,30.40,30.14,5,0,11,0.02
2013-2-11,63,57,45,60,54,40,98,90,79,30.14,29.85,5,1,15,0.09
2013-2-12,62,54,47,52,37,25,95,58,25,30.01,29.83,4,0,12,0.02
2013-2-13,49,46,44,47,44,37,97,92,65,29.89,29.55,1,0,10,0.14
2013-2-14,51,42,32,37,33,29,96,72,47,29.98,29.75,4,0,10,0.01
2013-2-15,62,44,30,39,32,28,98,69,28,30.00,29.85,4,0,10,0.01
2013-2-16,46,37,31,36,32,27,95,83,63,29.87,29.73,5,0,13,0.31
2013-2-17,39,31,24,25,14,7,79,52,27,30.18,29.82,10,2,24,0.07
2013-2-18,51,35,19,25,18,14,90,56,24,30.32,30.18,3,0,11,0.02
2013-2-19,53,42,31,50,38,23,94,83,65,30.20,29.78,5,1,21,0.09
2013-2-20,54,42,30,39,22,14,95,49,21,30.04,29.87,3,0,13,0.01
2013-2-21,56,41,26,25,19,14,80,43,19,30.16,30.03,2,0,11,0.00
2013-2-22,44,36,33,36,32,22,96,85,41,30.26,30.06,2,0,9,0.51
2013-2-23,44,40,37,43,39,36,97,96,95,30.04,29.73,3,0,10,0.68
2013-2-24,63,50,40,46,39,30,98,72,33,29.95,29.71,7,0,12,0.03
2013-2-25,43,39,34,33,25,21,75,57,44,30.14,29.95,7,1,15,0.03
2013-2-26,59,46,37,59,43,26,99,88,63,30.04,29.47,6,1,15,1.06
2013-2-27,60,49,39,45,40,36,97,76,45,29.71,29.54,3,0,13,0.01
2013-2-28,50,42,35,39,31,25,96,68,39,29.76,29.62,4,0,15,0.01